Pagrindinis puslapis
METAR-TAF:

METAR-TAF

Oro uostai :

Camiri, Bolivija

platuma: 20-00S, ilguma: 063-32W, Aukštis: 798 m

Dabartinis oras

Ataskaita buvo paskelbta 58 minutes, ne 10:00 UTC
Ramus vėjas
Temperatūra 20°C
Drėgmė 94%
Slėgis 1011 hPa
Matomumas 10 km arba daugiau

METAR: SLCA 251000Z 00000KT 9999 NSC 20/19 Q1011

Laikas: 06:58 (10:58 UTC)


TAF: trūkstamas

Orai ataskaitas ir orų prognozės (METAR, TAF).

turimą stotys yra geltonos ir raudonos taškus žemėlapyje.

Perkelti pele per norėdami pamatyti stoties vardą.

Tada spustelėkite, norėdami matyti oro stebėjimo ir prognozės.

Norėdami pakeisti žemėlapį: spustelėkite ant žalios mygtukų su juodo kryžiaus žemyn,; žalią mygtuką su brūkšneliu, jei norite nutolinti; arba žalių rodyklių gretimoms žemėlapius.


METAR-TAF: